| time (UTC) | temp F | wind direction | speed MPH | gust MPH | rain 1hr in | rain 24hr in | rain mn in | humidity % | barometer mb |
| 20260504233829 | 63 | 15 | 3.0 | 5.0 | 0.00 | 0.00 | 0.00 | 52 | |
| 20260504233324 | 63 | 287 | 3.0 | 7.0 | 0.00 | 0.00 | 0.00 | 52 | |
| 20260504232822 | 63 | 191 | 10.0 | 14.0 | 0.00 | 0.00 | 0.00 | 51 | |
| 20260504232319 | 64 | 285 | 1.0 | 5.0 | 0.00 | 0.00 | 0.00 | 50 | |
| 20260504231815 | 64 | 273 | 4.0 | 10.0 | 0.00 | 0.00 | 0.00 | 49 | |
| 20260504231312 | 65 | 244 | 2.0 | 6.0 | 0.00 | 0.00 | 0.00 | 50 | |
| 20260504230808 | 65 | 238 | 5.0 | 14.0 | 0.00 | 0.00 | 0.00 | 47 | |
| 20260504230306 | 65 | 213 | 9.0 | 11.0 | 0.00 | 0.00 | 0.00 | 46 | |
| 20260504225805 | 65 | 267 | 4.0 | 13.0 | 0.00 | 0.00 | 0.00 | 46 | |
| 20260504225301 | 66 | 257 | 7.0 | 9.0 | 0.00 | 0.00 | 0.00 | 47 | |
| 20260504224758 | 66 | 249 | 6.0 | 9.0 | 0.00 | 0.00 | 0.00 | 45 | |
| 20260504224255 | 67 | 300 | 3.0 | 9.0 | 0.00 | 0.00 | 0.00 | 45 | |
| 20260504223751 | 67 | 289 | 4.0 | 15.0 | 0.00 | 0.00 | 0.00 | 44 | |
| 20260504223247 | 67 | 233 | 4.0 | 8.0 | 0.00 | 0.00 | 0.00 | 44 | |
| 20260504222744 | 67 | 226 | 4.0 | 10.0 | 0.00 | 0.00 | 0.00 | 44 | |
| 20260504222241 | 67 | 209 | 7.0 | 10.0 | 0.00 | 0.00 | 0.00 | 44 | |
| 20260504221739 | 67 | 49 | 3.0 | 10.0 | 0.00 | 0.00 | 0.00 | 44 | |
| 20260504221236 | 67 | 185 | 7.0 | 10.0 | 0.00 | 0.00 | 0.00 | 42 | |
| 20260504220732 | 68 | 211 | 6.0 | 8.0 | 0.00 | 0.00 | 0.00 | 41 | |
| 20260504220229 | 69 | 269 | 5.0 | 6.0 | 0.00 | 0.00 | 0.00 | 40 | |
| 20260504215727 | 71 | 262 | 3.0 | 7.0 | 0.00 | 0.00 | 0.00 | 39 | |
| 20260504215223 | 71 | 219 | 5.0 | 8.0 | 0.00 | 0.00 | 0.00 | 36 | |
| 20260504214719 | 71 | 275 | 4.0 | 6.0 | 0.00 | 0.00 | 0.00 | 37 | |
| 20260504214216 | 71 | 307 | 7.0 | 10.0 | 0.00 | 0.00 | 0.00 | 36 | |
| 20260504213712 | 71 | 241 | 6.0 | 10.0 | 0.00 | 0.00 | 0.00 | 36 | |
| 20260504213209 | 71 | 238 | 5.0 | 8.0 | 0.00 | 0.00 | 0.00 | 36 | |
| 20260504212706 | 70 | 196 | 4.0 | 9.0 | 0.00 | 0.00 | 0.00 | 37 | |
| 20260504212203 | 71 | 234 | 5.0 | 10.0 | 0.00 | 0.00 | 0.00 | 36 | |
| 20260504211700 | 71 | 266 | 5.0 | 9.0 | 0.00 | 0.00 | 0.00 | 36 | |
| 20260504211156 | 70 | 294 | 6.0 | 8.0 | 0.00 | 0.00 | 0.00 | 37 | |
| 20260504210654 | 70 | 266 | 5.0 | 9.0 | 0.00 | 0.00 | 0.00 | 37 | |
| 20260504210150 | 70 | 154 | 10.0 | 13.0 | 0.00 | 0.00 | 0.00 | 36 | |
| 20260504205648 | 70 | 272 | 3.0 | 6.0 | 0.00 | 0.00 | 0.00 | 38 | |
| 20260504205144 | 71 | 9 | 5.0 | 16.0 | 0.00 | 0.00 | 0.00 | 35 | |
| 20260504204643 | 72 | 306 | 7.0 | 10.0 | 0.00 | 0.00 | 0.00 | 36 | |
| 20260504204142 | 71 | 278 | 4.0 | 9.0 | 0.00 | 0.00 | 0.00 | 38 | |
| 20260504203640 | 71 | 278 | 6.0 | 16.0 | 0.00 | 0.00 | 0.00 | 36 | |
| 20260504203137 | 72 | 220 | 5.0 | 10.0 | 0.00 | 0.00 | 0.00 | 36 | |
| 20260504202637 | 71 | 293 | 5.0 | 8.0 | 0.00 | 0.00 | 0.00 | 37 | |
| 20260504202134 | 72 | 315 | 2.0 | 6.0 | 0.00 | 0.00 | 0.00 | 36 | |
| 20260504201631 | 71 | 267 | 4.0 | 9.0 | 0.00 | 0.00 | 0.00 | 35 | |
| 20260504201129 | 73 | 272 | 7.0 | 9.0 | 0.00 | 0.00 | 0.00 | 35 | |
| 20260504200626 | 72 | 296 | 5.0 | 8.0 | 0.00 | 0.00 | 0.00 | 34 | |
| 20260504200123 | 72 | 197 | 8.0 | 10.0 | 0.00 | 0.00 | 0.00 | 32 | |
| 20260504195618 | 71 | 315 | 5.0 | 13.0 | 0.00 | 0.00 | 0.00 | 36 | |
| 20260504195115 | 71 | 265 | 8.0 | 18.0 | 0.00 | 0.00 | 0.00 | 35 | |
| 20260504194612 | 71 | 215 | 4.0 | 8.0 | 0.00 | 0.00 | 0.00 | 36 | |
| 20260504194107 | 71 | 236 | 8.0 | 11.0 | 0.00 | 0.00 | 0.00 | 36 | |
| 20260504193604 | 71 | 230 | 7.0 | 8.0 | 0.00 | 0.00 | 0.00 | 35 | |
| 20260504193103 | 71 | 293 | 4.0 | 8.0 | 0.00 | 0.00 | 0.00 | 37 | |
| 20260504192600 | 71 | 265 | 7.0 | 13.0 | 0.00 | 0.00 | 0.00 | 34 | |
| 20260504192058 | 72 | 254 | 7.0 | 10.0 | 0.00 | 0.00 | 0.00 | 33 | |
| 20260504191556 | 71 | 255 | 4.0 | 10.0 | 0.00 | 0.00 | 0.00 | 38 | |
| 20260504191052 | 70 | 318 | 6.0 | 9.0 | 0.00 | 0.00 | 0.00 | 37 | |
| 20260504190548 | 70 | 191 | 6.0 | 10.0 | 0.00 | 0.00 | 0.00 | 35 | |
| 20260504190044 | 70 | 264 | 6.0 | 9.0 | 0.00 | 0.00 | 0.00 | 32 | |
| 20260504185542 | 71 | 287 | 10.0 | 13.0 | 0.00 | 0.00 | 0.00 | 34 | |
| 20260504185038 | 71 | 283 | 5.0 | 6.0 | 0.00 | 0.00 | 0.00 | 37 | |
| 20260504184534 | 70 | 277 | 5.0 | 10.0 | 0.00 | 0.00 | 0.00 | 35 | |
| 20260504184029 | 70 | 137 | 6.0 | 10.0 | 0.00 | 0.00 | 0.00 | 34 | |
| 20260504183527 | 71 | 290 | 6.0 | 9.0 | 0.00 | 0.00 | 0.00 | 37 | |
| 20260504183025 | 70 | 247 | 5.0 | 10.0 | 0.00 | 0.00 | 0.00 | 33 | |
| 20260504182521 | 70 | 276 | 8.0 | 10.0 | 0.00 | 0.00 | 0.00 | 34 | |
| 20260504182019 | 70 | 246 | 6.0 | 14.0 | 0.00 | 0.00 | 0.00 | 35 | |
| 20260504181515 | 70 | 260 | 5.0 | 8.0 | 0.00 | 0.00 | 0.00 | 36 | |
| 20260504181014 | 70 | 254 | 8.0 | 13.0 | 0.00 | 0.00 | 0.00 | 35 | |
| 20260504180513 | 69 | 254 | 6.0 | 14.0 | 0.00 | 0.00 | 0.00 | 36 | |
| 20260504180011 | 69 | 243 | 6.0 | 13.0 | 0.00 | 0.00 | 0.00 | 35 | |
| 20260504175508 | 70 | 265 | 9.0 | 11.0 | 0.00 | 0.00 | 0.00 | 35 | |
| 20260504175005 | 70 | 223 | 5.0 | 6.0 | 0.00 | 0.00 | 0.00 | 38 | |
| 20260504174503 | 69 | 249 | 10.0 | 14.0 | 0.00 | 0.00 | 0.00 | 35 | |
| 20260504173959 | 68 | 272 | 5.0 | 16.0 | 0.00 | 0.00 | 0.00 | 35 | |
| 20260504173456 | 68 | 229 | 11.0 | 21.0 | 0.00 | 0.00 | 0.00 | 34 | |
| 20260504172954 | 69 | 256 | 7.0 | 11.0 | 0.00 | 0.00 | 0.00 | 37 | |
| 20260504172449 | 69 | 221 | 6.0 | 15.0 | 0.00 | 0.00 | 0.00 | 39 | |
| 20260504171946 | 68 | 285 | 4.0 | 9.0 | 0.00 | 0.00 | 0.00 | 38 | |
| 20260504171443 | 69 | 297 | 9.0 | 17.0 | 0.00 | 0.00 | 0.00 | 35 | |
| 20260504170940 | 69 | 290 | 4.0 | 8.0 | 0.00 | 0.00 | 0.00 | 39 | |
| 20260504170436 | 68 | 254 | 7.0 | 11.0 | 0.00 | 0.00 | 0.00 | 38 | |
| 20260504160356 | 66 | 266 | 6.0 | 9.0 | 0.00 | 0.00 | 0.00 | 40 | |
| 20260504150820 | 65 | 225 | 6.0 | 11.0 | 0.00 | 0.00 | 0.00 | 42 | |
| 20260504150316 | 66 | 230 | 6.0 | 13.0 | 0.00 | 0.00 | 0.00 | 42 | |
| 20260504141247 | 63 | 270 | 6.0 | 9.0 | 0.00 | 0.00 | 0.00 | 45 | |
| 20260504140743 | 63 | 261 | 6.0 | 10.0 | 0.00 | 0.00 | 0.00 | 46 | |
| 20260504140239 | 63 | 307 | 6.0 | 7.0 | 0.00 | 0.00 | 0.00 | 46 | |
| 20260504130708 | 59 | 275 | 5.0 | 7.0 | 0.00 | 0.00 | 0.00 | 50 | |
| 20260504130203 | 59 | 260 | 5.0 | 7.0 | 0.00 | 0.00 | 0.00 | 55 | |
| 20260504120127 | 51 | 254 | 3.0 | 8.0 | 0.00 | 0.00 | 0.00 | 58 | |
| 20260504110555 | 51 | 246 | 1.0 | 6.0 | 0.00 | 0.00 | 0.00 | 58 | |
| 20260504100517 | 46 | 284 | 2.0 | 3.0 | 0.00 | 0.00 | 0.00 | 66 | |
| 20260504081910 | 45 | 263 | 1.0 | 2.0 | 0.00 | 0.00 | 0.00 | 71 | |
| 20260504081406 | 45 | 272 | 0.0 | 2.0 | 0.00 | 0.00 | 0.00 | 70 | |
| 20260504080903 | 45 | 262 | 1.0 | 1.0 | 0.00 | 0.00 | 0.00 | 70 | |
| 20260504080400 | 45 | 261 | 0.0 | 1.0 | 0.00 | 0.00 | 0.00 | 69 | |
| 20260504070327 | 45 | 275 | 0.0 | 0.0 | 0.00 | 0.00 | 0.00 | 68 | |
| 20260504060247 | 47 | 280 | 1.0 | 2.0 | 0.00 | 0.00 | 0.00 | 61 | |
| 20260504050715 | 45 | 250 | 2.0 | 3.0 | 0.00 | 0.00 | 0.00 | 62 | |
| 20260504050212 | 45 | 279 | 1.0 | 3.0 | 0.00 | 0.00 | 0.00 | 62 | |
| 20260504045710 | 44 | 267 | 1.0 | 2.0 | 0.00 | 0.00 | 0.00 | 69 | |
| 20260504045210 | 43 | 253 | 2.0 | 2.0 | 0.00 | 0.00 | 0.00 | 74 | |
| 20260504044708 | 43 | 260 | 2.0 | 2.0 | 0.00 | 0.00 | 0.00 | 76 | |
| 20260504044205 | 43 | 278 | 2.0 | 3.0 | 0.00 | 0.00 | 0.00 | 72 | |
| 20260504043701 | 43 | 286 | 2.0 | 2.0 | 0.00 | 0.00 | 0.00 | 74 | |
| 20260504043158 | 43 | 284 | 1.0 | 2.0 | 0.00 | 0.00 | 0.00 | 67 | |
| 20260504042656 | 43 | 272 | 2.0 | 2.0 | 0.00 | 0.00 | 0.00 | 67 | |
| 20260504042152 | 43 | 268 | 2.0 | 6.0 | 0.00 | 0.00 | 0.00 | 63 | |
| 20260504041648 | 43 | 274 | 2.0 | 2.0 | 0.00 | 0.00 | 0.00 | 65 | |
| 20260504041144 | 43 | 284 | 2.0 | 3.0 | 0.00 | 0.00 | 0.00 | 64 | |
| 20260504040642 | 43 | 283 | 3.0 | 3.0 | 0.00 | 0.00 | 0.00 | 66 | |
| 20260504040138 | 42 | 284 | 1.0 | 3.0 | 0.00 | 0.00 | 0.00 | 69 | |
| 20260504035635 | 41 | 267 | 1.0 | 2.0 | 0.00 | 0.00 | 0.00 | 69 | |
| 20260504035132 | 40 | 267 | 1.0 | 2.0 | 0.00 | 0.00 | 0.00 | 75 | |
| 20260504034630 | 39 | 271 | 1.0 | 2.0 | 0.00 | 0.00 | 0.00 | 82 | |
| 20260504034126 | 39 | 272 | 1.0 | 1.0 | 0.00 | 0.00 | 0.00 | 85 | |
| 20260504033624 | 38 | 293 | 0.0 | 1.0 | 0.00 | 0.00 | 0.00 | 85 | |
| 20260504033121 | 38 | 278 | 0.0 | 1.0 | 0.00 | 0.00 | 0.00 | 84 | |
| 20260504032618 | 38 | 274 | 0.0 | 1.0 | 0.00 | 0.00 | 0.00 | 84 | |
| 20260504032115 | 38 | 274 | 0.0 | 0.0 | 0.00 | 0.00 | 0.00 | 83 | |
| 20260504031612 | 39 | 274 | 0.0 | 0.0 | 0.00 | 0.00 | 0.00 | 83 | |
| 20260504031108 | 39 | 269 | 0.0 | 1.0 | 0.00 | 0.00 | 0.00 | 83 | |
| 20260504030605 | 39 | 267 | 0.0 | 1.0 | 0.00 | 0.00 | 0.00 | 82 | |
| 20260504025559 | 39 | 274 | 1.0 | 2.0 | 0.00 | 0.00 | 0.00 | 82 | |
| 20260504025055 | 39 | 263 | 0.0 | 1.0 | 0.00 | 0.00 | 0.00 | 85 | |
| 20260504024553 | 39 | 265 | 0.0 | 0.0 | 0.00 | 0.00 | 0.00 | 85 | |
| 20260504024049 | 39 | 265 | 0.0 | 0.0 | 0.00 | 0.00 | 0.00 | 84 | |
| 20260504023546 | 39 | 265 | 0.0 | 1.0 | 0.00 | 0.00 | 0.00 | 84 | |
| 20260504023042 | 39 | 265 | 0.0 | 0.0 | 0.00 | 0.00 | 0.00 | 83 | |
| 20260504022538 | 39 | 265 | 0.0 | 0.0 | 0.00 | 0.00 | 0.00 | 82 | |
| 20260504022035 | 40 | 265 | 0.0 | 0.0 | 0.00 | 0.00 | 0.00 | 81 | |
| 20260504021532 | 40 | 265 | 0.0 | 0.0 | 0.00 | 0.00 | 0.00 | 80 | |
| 20260504021029 | 40 | 263 | 0.0 | 0.0 | 0.00 | 0.00 | 0.00 | 79 | |
| 20260504020526 | 41 | 260 | 0.0 | 1.0 | 0.00 | 0.00 | 0.00 | 79 | |
| 20260504020022 | 41 | 260 | 0.0 | 1.0 | 0.00 | 0.00 | 0.00 | 77 | |
| 20260504015519 | 41 | 266 | 0.0 | 0.0 | 0.00 | 0.00 | 0.00 | 75 | |
| 20260504015015 | 41 | 265 | 0.0 | 1.0 | 0.00 | 0.00 | 0.00 | 74 | |
| 20260504014511 | 41 | 274 | 1.0 | 1.0 | 0.00 | 0.00 | 0.00 | 76 | |
| 20260504014008 | 41 | 275 | 0.0 | 0.0 | 0.00 | 0.00 | 0.00 | 77 | |
| 20260504013506 | 41 | 275 | 0.0 | 0.0 | 0.00 | 0.00 | 0.00 | 76 | |
| 20260504013002 | 42 | 275 | 0.0 | 0.0 | 0.00 | 0.00 | 0.00 | 76 | |
| 20260504012500 | 42 | 275 | 0.0 | 0.0 | 0.00 | 0.00 | 0.00 | 75 | |
| 20260504011958 | 42 | 275 | 0.0 | 1.0 | 0.00 | 0.00 | 0.00 | 75 | |
| 20260504011454 | 42 | 275 | 0.0 | 1.0 | 0.00 | 0.00 | 0.00 | 74 | |
| 20260504010950 | 43 | 275 | 0.0 | 0.0 | 0.00 | 0.00 | 0.00 | 71 | |
| 20260504010446 | 44 | 275 | 0.0 | 0.0 | 0.00 | 0.00 | 0.00 | 67 | |
| 20260504005942 | 45 | 275 | 0.0 | 0.0 | 0.00 | 0.00 | 0.00 | 63 | |
| 20260504005439 | 46 | 274 | 0.0 | 1.0 | 0.00 | 0.00 | 0.00 | 65 | |
| 20260504004937 | 46 | 273 | 1.0 | 2.0 | 0.00 | 0.00 | 0.00 | 64 | |
| 20260504004434 | 46 | 272 | 1.0 | 1.0 | 0.00 | 0.00 | 0.00 | 61 | |
| 20260504003931 | 47 | 272 | 0.0 | 1.0 | 0.00 | 0.00 | 0.00 | 58 | |
| 20260504003427 | 47 | 271 | 0.0 | 2.0 | 0.00 | 0.00 | 0.00 | 55 | |
| 20260504002924 | 48 | 269 | 1.0 | 1.0 | 0.00 | 0.00 | 0.00 | 53 | |
| 20260504002421 | 48 | 269 | 2.0 | 3.0 | 0.00 | 0.00 | 0.00 | 50 | |
| 20260504001919 | 48 | 281 | 3.0 | 5.0 | 0.00 | 0.00 | 0.00 | 50 | |
| 20260504001416 | 47 | 269 | 2.0 | 2.0 | 0.00 | 0.00 | 0.00 | 55 | |
| 20260504000912 | 47 | 276 | 1.0 | 2.0 | 0.00 | 0.00 | 0.00 | 56 | |
| 20260504000410 | 48 | 280 | 0.0 | 1.0 | 0.00 | 0.00 | 0.00 | 52 | |
| 20260503235907 | 48 | 274 | 1.0 | 1.0 | 0.00 | 0.00 | 0.00 | 51 | |
| 20260503235405 | 48 | 279 | 2.0 | 2.0 | 0.00 | 0.00 | 0.00 | 54 | |
| 20260503234902 | 49 | 270 | 1.0 | 2.0 | 0.00 | 0.00 | 0.00 | 51 | |
| 20260503234359 | 49 | 296 | 1.0 | 1.0 | 0.00 | 0.00 | 0.00 | 51 |